SCP
0 0 0 0 0 0 0 0 0 0 0 0 0 0 0 0 0 0 0 0 0 0 0 0 0 0 0 0 0 0 0 0 0 0 0 0 0 0 0 0 0 0 0
0 0 0 0 0 0 0 0 0 0 0 0 0 0 0 0 0 0 0 0 0 0 0 0 0 0 0 0 0 0 0 0 0 0 0 0 0 0 0 0 0 0 0
0 0 0 0 0 0 0 0 0 0 0 0 0 0 0 0 0 0 0 0 0 0 0 0 0 0 0 0 0 0 0 0 0 0 0 0 0 0 0 0 0 0 0
0 0 0 0 0 0 0 0 0 0 0 0 0 0 0 0 0 0 0 0 0 0 0 0 0 0 0 0 0 0 0 0 0 0 0 0 0 0 0 0 0 0 0
0 0 0 0 0 0 0 0 0 0 0 0 0 0 0 0 0 0 0 0 0 0 0 0 0 0 0 0 0 0 0 0 0 0 0 0 0 0 0 0 0 0 0
0 0 0 0 0 0 0 0 0 0 0 0 0 0 0 0 0 0 0 0 0 0 0 0 0 0 0 0 0 0 0 0 0 0 0 0 0 0 0 0 0 0 0
0 0 0 0 0 0 0 0 0 0 0 0 0 0 0 0 0 0 0 0 0 0 0 0 0 0 0 0 0 0 0 0 0 0 0 0 0 0 0 0 0 0 0
0 0 0 0 0 0 0 0 0 0 0 0 0 0 0 0 0 0 0 0 0 0 0 0 0 0 0 0 0 0 0 0 0 0 0 0 0 0 0 0 0 0 0
0 0 0 0 0 0 0 0 0 0 0 0 0 0 0 0 0 0 0 0 0 0 0 0 0 0 0 0 0 0 0 0 0 0 0 0 0 0 0 0 0 0 0
0 0 0 0 0 0 0 0 0 0 0 0 0 0 0 0 0 0 0 0 0 0 0 0 0 0 0 0 0 0 0 0 0 0 0 0 0 0 0 0 0 0 0
0 0 0 0 0 0 0 0 0 0 0 0 0 0 0 0 0 0 0 0 0 0 0 0 0 0 0 0 0 0 0 0 0 0 0 0 0 0 0 0 0 0 0
0 0 0 0 0 0 0 0 0 0 0 0 0 0 0 0 0 0 0 0 0 0 0 0 0 0 0 0 0 0 0 0 0 0 0 0 0 0 0 0 0 0 0
0 0 0 0 0 0 0 0 0 0 0 0 0 0 0 0 0 0 0 0 0 0 0 0 0 0 0 0 0 0 0 0 0 0 0 0 0 0 0 0 0 0 0
0 0 0 0 0 0 0 0 0 0 0 0 0 0 0 0 0 0 0 0 0 0 0 0 0 0 0 0 0 0 0 0 0 0 0 0 0 0 0 0 0 0 0
0 0 0 0 0 0 0 0 0 0 0 0 0 0 0 0 0 0 0 0 0 0 0 0 0 0 0 0 0 0 0 0 0 0 0 0 0 0 0 0 0 0 0
0 0 0 0 0 0 0 0 0 0 0 0 0 0 0 0 0 0 0 0 0 0 0 0 0 0 0 0 0 0 0 0 0 0 0 0 0 0 0 0 0 0 0
0 0 0 0 0 0 0 0 0 0 0 0 0 0 0 0 0 0 0 0 0 0 0 0 0 0 0 0 0 0 0 0 0 0 0 0 0 0 0 0 0 0 0
0 0 0 0 0 0 0 0 0 0 0 0 0 0 0 0 0 0 0 0 0 0 0 0 0 0 0 0 0 0 0 0 0 0 0 0 0 0 0 0 0 0 0
0 0 0 0 0 0 0 0 0 0 0 0 0 0 0 0 0 0 0 0 0 0 0 0 0 0 0 0 0 0 0 0 0 0 0 0 0 0 0 0 0 0 0
0 0 0 0 0 0 0 0 0 0 0 0 0 0 0 0 0 0 0 0 0 0 0 0 0 0 0 0 0 0 0 0 0 0 0 0 0 0 0 0 0 0 0
0 0 0 0 0 0 0 0 0 0 0 0 0 0 0 0 0 0 0 0 0 0 0 0 0 0 0 0 0 0 0 0 0 0 0 0 0 0 0 0 0 0 0
0 0 0 0 0 0 0 0 0 0 0 0 0 0 0 0 0 0 0 0 0 0 0 0 0 0 0 0 0 0 0 0 0 0 0 0 0 0 0 0 0 0 0
0 0 0 0 0 0 0 0 0 0 0 0 0 0 0 0 0 0 0 0 0 0 0 0 0 0 0 0 0 0 0 0 0 0 0 0 0 0 0 0 0 0 0
0 0 0 0 0 0 0 0 0 0 0 0 0 0 0 0 0 0 0 0 0 0 0 0 0 0 0 0 0 0 0 0 0 0 0 0 0 0 0 0 0 0 0
0 0 0 0 0 0 0 0 0 0 0 0 0 0 0 0 0 0 0 0 0 0 0 0 0 0 0 0 0 0 0 0 0 0 0 0 0 0 0 0 0 0 0
0 0 0 0 0 0 0 0 0 0 0 0 0 0 0 0 0 0 0 0 0 0 0 0 0 0 0 0 0 0 0 0 0 0 0 0 0 0 0 0 0 0 0
Wind_Speed
3 3 3 3 3 3 3 3 4 6 5 7 7 7 8 8 7 6 7 13 14 14 14 13 13 13 13 13 13 14 14 13 12 12 13 13 13 11 9 7 7 6 5
2 3 4 3 3 3 3 3 5 5 5 6 7 7 7 7 7 6 6 8 13 14 15 14 14 14 14 14 14 14 13 13 13 13 14 15 15 13 11 10 9 9 8
3 3 3 3 3 3 4 3 6 4 5 5 6 7 6 7 6 7 7 6 6 11 14 15 15 15 14 14 14 14 14 13 13 14 14 14 15 15 14 12 11 9 9
4 3 2 3 3 3 3 3 3 4 5 5 5 5 5 5 6 6 6 6 6 6 10 14 14 15 15 15 15 15 14 13 13 13 14 14 14 15 15 14 12 10 10
3 3 2 2 3 2 3 3 3 3 5 5 5 4 5 4 5 5 7 7 7 7 6 8 10 14 15 16 16 16 14 14 13 13 14 14 14 15 15 15 14 12 12
3 3 2 3 3 2 3 3 4 4 4 4 4 5 4 4 4 5 6 6 6 8 8 8 6 8 12 15 16 16 14 14 14 14 14 14 15 15 15 16 15 15 14
3 3 2 2 2 2 3 4 4 5 4 3 3 4 4 5 5 5 5 5 6 6 7 7 6 6 5 10 14 16 15 14 14 14 15 15 14 14 15 15 16 16 15
2 2 2 2 2 2 3 4 3 3 3 1 1 1 2 3 3 4 4 4 5 5 6 7 7 7 7 6 9 14 15 14 14 15 15 15 15 15 15 16 16 15 15
3 2 3 2 2 2 3 3 3 3 2 1 1 2 1 2 2 3 4 4 4 4 5 5 7 7 7 6 7 11 15 14 14 15 15 15 15 15 15 15 16 16 16
3 2 2 2 2 2 3 3 2 1 1 1 1 1 2 2 0 2 3 3 4 5 5 5 6 7 7 6 8 12 13 14 14 15 15 15 15 15 15 15 16 16 16
3 2 2 2 2 2 2 2 2 1 1 0 0 1 1 0 1 1 2 2 3 3 4 5 5 5 6 7 7 11 12 12 13 14 15 15 15 15 15 15 15 16 16
3 3 2 2 2 2 2 2 2 1 0 0 0 0 0 0 0 1 1 2 3 3 4 4 4 4 5 6 8 10 11 11 12 13 14 14 15 15 15 14 15 15 15
3 3 2 2 2 3 2 2 2 1 1 1 0 0 1 1 1 1 1 2 2 2 2 3 4 3 4 4 5 6 9 10 11 12 12 13 14 14 14 14 14 14 14
3 3 2 2 3 3 2 2 1 2 1 2 2 1 1 1 1 1 1 1 1 2 2 4 3 4 4 4 5 3 7 9 10 10 11 12 12 13 13 13 14 13 13
3 3 3 3 3 2 2 2 1 2 2 2 2 2 1 2 1 1 1 1 1 1 2 3 2 3 3 3 3 3 5 9 8 9 10 10 11 11 11 12 13 13 13
4 4 4 4 4 3 3 2 2 2 2 3 1 2 2 2 2 1 1 1 1 1 2 2 2 2 2 2 4 4 5 6 6 7 8 8 9 9 10 10 11 11 12
5 4 3 3 4 3 3 3 2 2 2 3 3 3 3 2 2 1 1 1 1 1 2 2 2 2 2 3 3 2 3 2 4 6 6 7 7 8 8 8 9 10 10
4 4 4 3 3 3 3 3 3 2 2 2 3 3 3 2 2 1 1 1 1 1 1 2 1 1 2 2 2 2 2 2 2 5 4 5 5 6 6 6 7 8 9
5 4 4 4 3 3 3 3 3 2 2 2 2 2 3 3 2 2 1 1 1 2 1 1 2 1 1 1 1 1 1 2 2 3 3 2 3 3 4 4 5 6 7
5 5 4 4 3 3 3 3 3 2 3 3 2 2 2 2 2 2 1 2 1 2 1 1 1 1 1 1 1 1 1 1 1 1 1 1 1 1 1 2 3 4 5
5 4 4 3 3 2 1 1 2 2 2 3 3 3 3 4 6 4 2 2 1 1 1 0 0 0 0 1 1 2 2 2 1 1 2 1 1 1 1 2 1 2 3
4 4 4 3 3 2 2 1 1 2 2 2 3 3 4 3 3 3 3 4 3 1 1 1 1 1 2 1 1 2 2 3 2 1 3 3 2 2 2 2 3 1 1
5 4 4 3 3 3 3 2 1 1 1 1 2 2 2 2 1 2 4 4 2 1 1 3 2 2 3 3 2 3 3 4 4 3 3 4 2 2 2 2 3 0 1
5 4 4 3 3 3 4 3 2 2 2 2 1 1 1 2 2 1 1 1 1 2 0 2 2 2 3 3 3 4 4 4 4 2 2 4 3 3 3 2 3 1 1
6 5 4 4 3 4 4 4 4 3 2 2 2 2 1 2 4 1 1 1 1 2 3 2 3 3 4 4 3 3 3 3 4 2 1 4 4 5 4 3 2 4 3
5 5 4 3 3 3 5 3 4 2 2 2 2 2 4 3 4 1 1 0 1 1 0 1 2 2 2 1 1 3 3 4 4 3 2 3 4 5 4 2 2 2 2
Wind_Direction
94 102 100 94 90 90 99 88 91 88 81 75 70 67 67 64 56 58 70 56 47 45 43 43 41 41 39 36 35 35 35 38 38 34 28 23 20 21 23 26 28 23 22
99 102 103 100 95 91 88 101 98 94 84 79 75 69 64 67 61 60 63 72 61 48 41 40 41 40 39 38 37 38 38 38 37 34 31 28 27 31 34 37 36 35 36
105 113 103 109 111 110 108 96 96 97 95 90 80 70 64 57 59 57 55 48 63 63 49 39 39 38 38 38 39 39 39 40 37 34 33 31 30 33 35 35 33 39 45
104 103 102 104 114 116 112 105 107 102 97 87 77 67 69 62 58 54 55 53 45 48 60 46 41 37 35 35 37 37 39 41 39 35 35 33 33 34 34 31 33 45 51
102 107 93 107 117 120 118 116 106 106 101 94 90 78 69 62 53 51 54 54 53 45 47 62 55 43 35 33 33 35 40 41 41 38 36 35 35 35 35 35 41 50 55
82 94 112 122 122 132 125 120 111 100 97 99 94 86 75 71 61 53 51 55 50 47 40 37 45 57 45 34 30 33 38 41 43 41 40 39 38 38 39 40 47 54 56
90 92 105 104 123 127 135 138 131 128 121 124 125 115 99 75 65 61 50 47 55 49 46 40 37 32 49 50 35 30 34 38 42 43 44 43 42 43 44 45 49 53 54
81 89 98 112 126 127 139 137 148 141 129 175 260 175 148 128 84 63 63 52 46 50 44 43 42 38 34 39 46 31 26 32 41 44 44 45 46 48 49 50 51 51 52
75 74 84 95 113 136 141 153 162 159 159 156 358 330 329 77 108 90 62 61 52 48 46 41 41 42 42 42 41 39 26 28 38 43 45 47 47 48 49 51 52 51 51
83 67 78 92 117 120 139 150 142 166 185 184 129 11 0 26 294 126 109 78 60 52 46 42 42 44 43 46 52 41 29 28 35 42 45 47 47 48 48 50 51 51 49
95 89 83 98 107 113 126 136 143 197 189 248 130 125 86 123 301 22 103 102 88 66 50 41 43 42 43 46 45 43 33 32 37 40 42 44 45 48 50 52 52 52 50
122 108 99 98 105 108 116 126 139 143 125 63 296 280 259 315 63 58 101 107 91 79 64 50 46 46 47 49 51 42 40 37 40 41 41 42 43 46 48 50 52 51 50
135 119 117 107 101 100 108 117 130 123 123 126 143 46 30 31 21 14 74 96 100 100 87 74 55 53 53 53 57 38 53 42 41 41 41 41 42 44 45 47 48 48 47
134 125 121 112 113 118 121 110 105 100 100 104 97 98 90 70 64 50 43 100 126 113 98 80 67 53 50 54 49 13 63 53 44 43 42 42 44 44 44 45 44 44 44
137 133 131 132 122 121 121 116 99 98 90 92 105 114 101 92 78 65 40 333 333 78 90 78 65 56 50 56 42 49 60 61 49 46 45 45 45 44 45 43 42 41 41
143 144 151 144 137 137 131 116 102 89 113 94 76 94 95 95 82 78 46 359 343 0 62 73 67 65 51 61 61 50 65 85 66 52 48 47 46 45 45 43 40 38 38
160 152 153 147 137 133 130 126 118 119 114 115 117 106 100 84 98 100 81 63 41 41 85 84 79 83 80 53 63 55 58 59 77 68 50 47 46 45 44 41 38 35 33
155 149 148 140 126 122 116 123 126 127 109 102 102 108 109 113 99 84 76 80 81 65 80 85 77 60 43 41 33 30 47 56 63 83 65 50 47 46 43 40 38 35 32
161 159 156 150 140 135 131 135 133 126 114 105 98 96 105 115 113 100 89 78 85 90 86 102 73 52 22 38 22 12 40 34 38 108 118 96 64 50 42 39 37 35 33
170 168 157 152 146 149 147 141 131 127 119 106 95 86 80 79 77 91 91 85 91 99 98 96 88 77 43 13 318 345 357 9 333 17 45 52 135 158 105 51 40 33 29
170 165 160 152 142 149 143 166 146 146 134 121 115 104 79 52 35 29 22 45 81 94 106 83 52 3 13 350 345 331 332 322 312 347 319 318 310 312 190 166 127 29 23
166 163 167 152 144 130 85 10 280 162 143 133 119 113 113 124 111 102 54 32 12 353 359 340 321 324 348 354 341 303 316 314 316 11 313 310 313 317 330 354 60 63 355
163 162 161 153 154 122 118 145 265 253 131 104 102 110 103 99 155 133 136 165 140 75 321 311 309 337 338 354 322 308 314 310 308 333 312 297 304 307 323 32 101 146 293
161 161 156 157 152 126 132 153 192 184 130 117 96 97 133 127 88 37 124 125 96 98 85 267 316 344 351 346 312 301 304 297 290 275 282 294 312 312 316 319 137 187 260
164 162 154 159 160 143 140 164 200 162 156 136 108 78 68 107 73 9 225 117 109 112 110 88 23 20 29 11 328 293 297 295 299 306 321 296 311 310 294 277 169 180 218
166 161 153 163 168 153 134 165 219 177 167 149 124 110 70 45 73 10 249 264 302 13 56 142 177 192 229 164 229 283 302 300 306 312 22 308 312 319 301 295 317 300 258